Regional Weather Roundup
Issued by NWS

Home | Current Version | Previous Version | Graphics & Text | Print | Product List | Glossary On
Versions: 1 2 3 4 5 6 7 8 9 10 11 12 13 14 15 16 17 18 19 20 21 22 23 24 25 26 27 28 29 30 31 32 33 34 35 36 37 38 39 40 41 42 43 44 45 46 47 48 49 50
000
ASUS43 KOAX 220810
RWRNE

WEATHER ROUNDUP FOR NEBRASKA
NATIONAL WEATHER SERVICE OMAHA NE
300 AM CDT WED OCT 22 2014

NOTES: SATELLITE DATA IS BEING USED TO AUGMENT CLOUD COVER ABOVE
       12000 FEET.
       "FAIR" INDICATES FEW OR NO CLOUDS BELOW 12,000 FEET WITH NO
       SIGNIFICANT WEATHER AND/OR OBSTRUCTIONS TO VISIBILITY.

  * THESE STATIONS DO NOT REPORT WEATHER SUCH AS RAIN...SNOW OR FOG.

NEZ001>004-019>022-054>056-220900-
NEBRASKA PANHANDLE

CITY           SKY/WX    TMP DP  RH WIND       PRES   REMARKS
SCOTTSBLUFF    LGT RAIN  54  51  90 NW8       29.93F
ALLIANCE       CLOUDY    52  43  71 W12       29.91R
CHADRON        LGT RAIN  61  49  64 SW14G28   29.90R
KIMBALL        CLOUDY    54  47  76 W14       29.96R
SIDNEY         CLOUDY    57  45  64 NW14      29.94S
$$

NEZ057>060-069>072-079>082-220900-
SOUTHWEST NEBRASKA

CITY           SKY/WX    TMP DP  RH WIND       PRES   REMARKS
IMPERIAL       MOCLDY    60  46  59 S12       29.90F
LEXINGTON      CLEAR     59  54  83 SE8       29.95S
MCCOOK         CLEAR     62  51  67 S13G21    29.93S
OGALLALA       CLOUDY    59  48  67 W6        29.91S
$$

NEZ005>010-023>029-035>040-094-220900-
NORTH CENTRAL NEBRASKA

CITY           SKY/WX    TMP DP  RH WIND       PRES   REMARKS
VALENTINE      PTCLDY    62  54  74 S12G23    29.85S
AINSWORTH      CLEAR     56  52  86 S15       29.88S
BROKEN BOW     PTCLDY    56  53  90 SE6       29.93S
O`NEILL        CLEAR     58  47  67 SE15      29.93S
ORD            CLEAR     55  50  83 SE7       29.94S
THEDFORD       PTCLDY    64  53  65 S13       29.90R
$$

NEZ041-046>049-061>064-073>077-083>087-220900-
SOUTH CENTRAL NEBRASKA

CITY           SKY/WX    TMP DP  RH WIND       PRES   REMARKS
GRAND ISLAND   CLEAR     58  52  80 SE12      29.99S
AURORA         CLEAR     55  48  76 SE7       30.01R HAZE
HASTINGS       CLEAR     59  53  80 SE10      29.99S
HEBRON         CLEAR     59  52  77 SE10      30.03R
HOLDREGE       CLEAR     57  53  86 S3        29.97S
KEARNEY *      CLEAR     57  54  88 SE13      29.98S
YORK           PTCLDY    55  46  71 SE10      30.03R
$$

NEZ011>018-030>034-042>045-220900-
NORTHEAST NEBRASKA

CITY           SKY/WX    TMP DP  RH WIND       PRES   REMARKS
NORFOLK        CLEAR     58  42  55 SE17      30.00S
ALBION         CLEAR     55  43  63 SE8       29.99S
BLAIR          CLEAR     57  45  63 SE13      30.08R
COLUMBUS *     CLEAR     57  41  54 SE10      30.04R
FREMONT        CLEAR     57  44  60 SE12      30.06S
TEKAMAH        CLEAR     56  45  66 SE14      30.07S
WAYNE          CLEAR     54  42  63 SE15      30.02F
$$

NEZ050>053-065>068-078-088>093-220900-
SOUTHEAST NEBRASKA

CITY           SKY/WX    TMP DP  RH WIND       PRES   REMARKS
LINCOLN        CLEAR     58  43  57 S13       30.06R
OMAHA EPPLEY   CLOUDY    57  44  62 SE16      30.09R
BEATRICE       CLEAR     57  45  63 SE10      30.05R
FALLS CITY     CLEAR     55  45  68 SE8       30.10R
NEBRASKA CITY  CLEAR     55  41  60 SE10      30.09S
PLATTSMOUTH    CLEAR     55  43  64 SE10      30.09R
$$

NEZ044-045-051>053-067-220900-
OMAHA AREA

CITY           SKY/WX    TMP DP  RH WIND       PRES   REMARKS
OMAHA EPPLEY   CLOUDY    57  44  62 SE16      30.09R
BLAIR          CLEAR     57  45  63 SE13      30.08R
FREMONT        CLEAR     57  44  60 SE12      30.06S
MILLARD        CLEAR     55  46  70 SE8       30.08R
OFFUTT AFB     CLEAR     55  49  82 E13       30.09R
PLATTSMOUTH    CLEAR     55  43  64 SE10      30.09R
WAHOO          FAIR      53  42  66 SE9       30.07R
$$



USA.gov is the U.S. government's official web portal to all federal, state and local government web resources and services.